sat.trackr.live / text

‹ back to catalog

STARLINK-5582

NORAD 56777 · 2023-078L

PAYLOAD ACTIVE UNKNOWN

§ Identity

Operator
Country
US
Launch date
2023-05-31
Launch site
AFWTR
Launch vehicle
Mass (kg)
RCS (m²)

Purposes: comms

External: N2YO · Heavens-Above · Gunter

§ Orbital elements

Epoch: 2026-09-20T06:49:32.021760Z

Period
96.11 min
Inclination
69.9996°
Eccentricity
0.0003240
Mean motion
14.98331024 rev/d
Perigee alt
569.8 km
Apogee alt
574.3 km
Semi-major
6,950.2 km
B*
4.2178e-5
RAAN
214.0131°
Arg perigee
269.3506°
Mean anomaly
90.7281°
Rev number
18,182

§ Raw data

STARLINK-55821 56777U 23078L   26263.28439840  .00000410  00000+0  42178-4 0  99992 56777  69.9996 214.0131 0003240 269.3506  90.7281 14.98331024181826

JSON: /api/v1/satellites/56777 · /tle

For live sub-satellite position, see the globe view (requires WebGL).

§ Visibility from observer

Set your observer location to see the next 7 days of passes ≥ 10°. The values pass through the URL so the page stays shareable.

No JS? Fill the form by hand. The geolocation button needs JavaScript.